#timestamp,LO_Frequency,Hit,StdDev 
1457665215.2,286047001.9,N
1457665235.1,286046999.9,N
1457665236.0,286046999.9,N
1457665255.8,286047001.2,N
1457665275.6,286046997.5,N
1457665295.5,286046996.6,N
1457665315.3,286046999.6,N
1457665335.1,286046997.7,N
1457665355.9,286046993.8,N
1457665375.7,286046996.3,N
1457665395.5,286046994.8,N
1457665415.4,286046994.6,N
1457665435.2,286046993.5,N
1457665455.0,286046997.1,N
1457665455.9,286046997.1,N
1457665475.8,286046997.7,N
1457665495.6,286046997.4,N
1457665515.4,286046999.1,N
1457665535.3,286046999.7,N
1457665555.1,286046998.2,N
1457665556.0,286046998.2,N
1457665575.8,286047001.2,N
1457665595.6,286046998.9,N
1457665615.5,286046999.0,N
1457665635.3,286047001.2,N
1457665655.1,286046997.3,N
1457665675.9,286046999.4,N
1457665695.7,286046997.4,N
1457665715.5,286046993.3,N
1457665735.4,286046996.5,N
1457665755.2,286046997.2,N
1457665775.0,286046995.7,N
1457665775.9,286046995.7,N
1457665795.8,286046999.3,N
1457665815.6,286046998.0,N
1457665835.4,286046992.7,Y
1457665855.3,286046995.8,P
1457665875.1,286046995.2,P
1457665876.0,286046995.2,P
1457665895.8,286046997.1,Y
1457665915.7,286046999.7,P
1457665935.5,286047001.2,N
1457665955.3,286046999.5,N
1457665975.2,286046996.8,N
1457665995.9,286046996.7,N
1457666015.7,286046995.1,N
1457666035.6,286046995.9,N
1457666055.4,286046995.0,N
1457666075.2,286046993.7,N
1457666095.1,286046994.7,N
1457666096.0,286046994.7,N
1457666115.8,286046992.0,Y
1457666135.6,286046997.6,P
1457666155.5,286046995.5,P
1457666175.3,286046993.9,P
1457666195.1,286046996.3,N
1457666215.9,286046994.6,Y
1457666235.7,286046996.6,P
1457666255.5,286047000.8,N
1457666275.4,286046994.9,N
1457666295.2,286046998.5,N
1457666315.0,286046994.5,N
1457666315.9,286046994.5,N
1457666335.8,286046997.2,N
1457666355.6,286046997.0,N
1457666375.4,286047002.5,N
1457666395.3,286047000.6,N
1457666415.1,286046998.7,N
1457666416.0,286046998.7,N
1457666435.8,286046993.3,N
1457666455.7,286046995.3,N
1457666475.5,286046993.9,N
1457666495.3,286046995.5,N
1457666515.2,286046999.2,N
1457666535.9,286046997.4,N
1457666555.7,286047000.9,N
1457666575.5,286047001.7,N
1457666595.4,286047005.9,N
1457666615.2,286047005.8,N
1457666635.0,286047003.2,N
1457666635.9,286047003.2,N
1457666655.8,286047005.3,N
1457666675.6,286047006.6,N
1457666695.4,286047006.9,N
1457666715.3,286047008.5,N
1457666735.1,286047008.9,N
1457666755.8,286047008.3,N
1457666775.7,286047007.7,N
1457666795.5,286047010.7,N
1457666815.3,286047010.0,N
1457666835.2,286047013.8,N
1457666855.9,286047015.0,N
1457666875.7,286047017.0,N
1457666895.6,286047014.2,N
1457666915.4,286047016.8,N
1457666935.2,286047014.6,N
1457666955.0,286047014.9,N
1457666956.0,286047014.9,N
1457666975.8,286047014.1,N
1457666995.6,286047017.1,N
1457667015.4,286047018.4,N
1457667035.3,286047017.9,N
1457667055.1,286047016.4,N
1457667075.8,286047017.8,N
1457667095.7,286047020.3,Y
1457667115.5,286047009.1,P
1457667135.3,286047004.8,P
1457667155.2,286047004.4,N
1457667175.9,286047004.1,N
1457667195.7,286047006.7,N
1457667215.6,286047004.5,N
1457667235.4,286047003.4,N
1457667255.2,286047005.8,N
1457667275.1,286047009.2,Y
1457667276.0,286047009.2,P
1457667295.8,286047000.2,N
1457667315.6,286047000.0,N
1457667335.5,286046999.0,N
1457667355.3,286046997.3,N
1457667375.1,286047000.1,N
1457667395.9,286047004.0,N
1457667415.7,286046998.2,N
1457667435.5,286046999.9,N
1457667455.3,286047000.1,N
1457667475.2,286047002.8,N
1457667495.0,286047000.6,N
1457667495.9,286047000.6,N
1457667515.7,286046997.2,N
1457667535.6,286046995.0,N
1457667555.4,286047001.2,N
1457667575.2,286047002.8,N
1457667595.1,286047000.5,N
1457667596.0,286047000.5,N
1457667615.8,286046999.6,N
1457667635.6,286046994.9,N
1457667655.5,286046993.3,N
1457667675.3,286046992.7,N
1457667695.1,286046991.8,N
1457667715.9,286046988.7,N
1457667735.7,286046987.0,N
1457667755.5,286046985.4,Y
1457667775.4,286046991.6,P
1457667795.2,286046989.5,N
1457667815.0,286046989.7,N
1457667815.9,286046989.7,N
1457667835.8,286046989.9,N
1457667855.6,286046988.9,Y
1457667875.4,286046999.6,P
1457667895.3,286046997.7,N
1457667915.1,286046995.2,N
1457667916.0,286046995.2,N
1457667935.8,286046993.7,N
1457667955.7,286046993.7,N
1457667975.5,286046995.8,N
1457667995.3,286046996.7,N
1457668015.2,286046996.8,N
1457668035.9,286046995.1,N
1457668055.7,286046997.4,N
1457668075.5,286046997.6,N
1457668095.4,286046993.3,Y
1457668115.2,286046996.7,P
1457668135.0,286047001.0,N
1457668136.0,286047001.0,N
1457668155.8,286047002.3,N
1457668175.6,286047004.4,N
1457668195.4,286047005.6,N
1457668215.3,286047004.5,N
1457668235.1,286047008.6,N
1457668255.8,286047005.0,N
1457668275.7,286047004.9,N
1457668295.5,286047008.0,N
1457668315.3,286047007.7,N
1457668335.2,286047008.7,N
1457668355.9,286047009.1,N
1457668375.7,286047007.9,N
1457668395.6,286047010.6,N
1457668415.4,286047008.5,N
1457668435.2,286047012.4,Y
1457668455.1,286047004.7,P
1457668456.0,286047004.7,P
1457668475.8,286047003.4,P
1457668495.6,286047006.9,Y
1457668515.5,286047004.1,P
1457668535.3,286046999.7,N
1457668555.2,286047001.9,N
1457668575.9,286047000.7,N
1457668595.7,286047000.8,N
1457668615.6,286046998.5,N
1457668635.4,286046999.9,N
1457668655.2,286047000.8,N
1457668675.0,286047000.5,N
1457668676.0,286047000.5,N
1457668695.8,286047000.1,N
1457668715.6,286047002.8,N
1457668735.4,286046996.8,N
1457668755.3,286046996.6,N
1457668775.1,286046997.8,N
1457668795.8,286046996.0,N
